Погода в Мадене

Турция     38°23′31″N   39°40′18″E
темп.,
°C
ветер,
м/с
пор.,
м/с
влажн.,
%
обл.,
%
осадки,
мм/ч
давл.,
гПа
погр.,
м
19 сентября, вс
вс1900:00+17сз224273 0.0 101311
03:00+16сз323739 0.0 101415
06:00+15ссз22410 0.0 101414
09:00+21ссз22290 0.0 1014675
12:00+24сз34200 0.0 10131940
15:00+26сз66180 0.0 10112303
18:00+24сз68260 0.0 1012363
21:00+20зсз47350 0.0 1013122
20 сентября, пн
пн2000:00+19зсз33390 0.0 101333
03:00+17сз33430 0.0 101327
06:00+16сз33490 0.0 101427
09:00+21ссз35360 0.0 1013774
12:00+25сз55250 0.0 10121986
15:00+26сз89220 0.0 10112439
18:00+25сз812220 0.0 1010643
21:00+22сз612290 0.0 1013311
21 сентября, вт
вт2100:00+19ссз43350 0.0 101434
03:00+17ссз43400 0.0 101434
06:00+16ссз43450 0.0 101443
09:00+21ссз45320 0.0 1014583
12:00+25ссз33220 0.0 10131405
15:00+27сз44165 0.0 10102007
18:00+24сз58200 0.0 1010216
21:00+21сз472790 0.0 1010104
22 сентября, ср
ср2200:00+19ссз333096 0.0 101022
03:00+18сз3331100 0.0 100920
06:00+17сз323496 0.0 100816
09:00+24сз26240 0.0 10081316
12:00+27зсз57182 0.0 10062899
15:00+28сз561699 0.0 10033634
18:00+24ссз2224100 0.0 100316
21:00+20ссз333849 0.0 100592
23 сентября, чт
чт2300:00+17ссз335392 0.1 100549
03:00+16ссз325742 0.1 100522
06:00+15ссз22655 0.0 100417
09:00+20юв3541100 0.0 1004843
12:00+24ю1013295 0.0 10022415
15:00+25ююз1214285 0.0 10002795
18:00+21ююз1014353 0.0 10001501
21:00+17ю485371 0.1 1003355